Fort Wayne Police Department
Fort Wayne Police Department
Emergencies Call: 911
Non-Emergencies: (260) 427-1222
report drug house

Daily Activity Logs

Activity Log for June 24, 2013 Community Search

Incident Time Nature Address
13F091151 00:00:24 40A AUDIBLE 4900 MONROE ST S
13F091152 00:01:59 30 TRAFFIC STOP 2500 VANCE AVE & ROLSTON ST
13F091153 00:06:13 30 TRAFFIC STOP 300 COLISEUM BLVD E & COLDWATER RD
13F091154 00:09:46 911 HANG UP 1900 HOBSON RD
13F091155 00:10:26 48 SUSPICIOUS 2300 BELLE VISTA BLVD
13F091156 00:11:33 44 NUISANCE 3800 NOTTINGHAM DR
13F091157 00:12:20 50,ATTEMPTED 200 ESSEX LN E
13F091158 00:13:51 22I JUV INVEST 1000 RIVERMET AVE
13F091159 00:18:02 40A AUDIBLE 7200 JEFFERSON BLVD W
13F091160 00:19:31 40A AUDIBLE 7200 JEFFERSON BLVD W
13F091161 00:36:40 43 DISTURBANCE 5800 MAPLECREST RD
13F091162 00:37:46 48,36 2700 CANTERBURY BLVD & ABBEY DR
13F091163 00:37:55 44 NUISANCE 1300 SPRING ST
13F091164 00:39:42 48 SUSPICIOUS 3900 NEWPORT AVE
13F091165 00:39:51 30 TRAFFIC STOP 3800 ANTHONY BLVD S & RUDISILL BLV
13F091166 00:44:21 30 TRAFFIC STOP 3500 UNION CHAPEL RD & I 69 NB
13F091167 00:50:23 911 HANG UP 3500 EUCLID AVE
13F091168 00:56:58 911 HANG UP 2900 WESTBROOK DR
13F091169 00:57:22 103 UNWANTED 1300 FAYETTE DR
13F091170 00:59:09 16V PICKUP VID 00 MAIN ST E
13F091171 00:59:19 51 THEFT 2500 GETZ RD
13F091172 01:00:24 23JO 2400 FOX AVE
13F091173 01:01:29 129 2900 WESTBROOK DR
13F091174 01:03:48 16V PICKUP VID 00 MAIN ST E
13F091175 01:06:39 911 HANG UP 6600 BLUFFTON RD
13F091176 01:06:51 30 TRAFFIC STOP 100 STATE BLVD E & TERRACE RD
13F091177 01:09:22 30 TRAFFIC STOP 3500 UNION CHAPEL RD & I 69 NB
13F091178 01:10:41 48 SUSPICIOUS 8000 LAWTON OAKS CT
13F091179 01:17:58 48,36 1200 STATE BLVD E
13F091180 01:18:36 43 DISTURBANCE 4600 WASHINGTON BLVD E
13F091181 01:26:18 16,97 00 MAIN ST E
13F091182 01:28:11 30 TRAFFIC STOP 3500 UNION CHAPEL RD & I 69 NB
13F091183 01:28:39 66 MENTALLY ILL 8300 BRIDGEWAY BLVD
13F091187 01:35:11 27 RECKLESS DRI 32000 I 69 SB
13F091184 01:38:13 46 DOMESTIC 100 COUNTRY FOREST DR
13F091185 01:45:49 66 72 HOUR 2200 RANDALLIA DR
13F091186 01:46:12 33,34 5800 LIMA RD & WASHINGTON CENTER R
13F091188 02:05:28 911 HANG UP 1300 SCOTT AVE
13F091189 02:05:53 1 MEET 4900 ROTHMAN RD
13F091190 02:09:38 101 OPEN DOOR 6800 KENSINGTON DR E & POND VIEW D
13F091191 02:13:12 129 1000 OAK BAY RUN
13F091192 02:19:20 911 HANG UP 2200 WEISSER PARK AVE
13F091193 02:19:28 44LP 1800 RIEDMILLER AVE & STOPHLET ST
13F091194 02:19:38 30 TRAFFIC STOP 2300 BELLE VISTA BLVD & REMINGTON
13F091195 02:22:06 101 OPEN DOOR 6700 PALMILLA CT
13F091196 02:34:42 40A AUDIBLE 6600 IDEAL AVE
13F091197 02:36:15 EMS 900 WOODVIEW BLVD
13F091198 02:38:05 129 12200 GLEN LAKE DR & GLEN LAKE CT
13F091199 02:41:30 40A AUDIBLE 6400 JEFFERSON BLVD W
13F091200 02:44:49 103 UNWANTED 700 BROADWAY
13F091201 02:47:22 101 OPEN DOOR 4500 NEWAYGO RD
13F091202 02:48:32 800 FOREST AVE
13F091203 02:55:47 48 SUSPICIOUS 00 MAIN ST E
13F091204 03:05:37 2000 FOREST AVE
13F091205 03:07:58 66 MENTALLY ILL 1300 MAPLE AVE
13F091206 03:16:19 1300 DELAWARE AVE
13F091207 03:17:18 43 DISTURBANCE 700 COTTAGE AVE
13F091208 03:19:40 96 BATTERY 4200 WELLS ST
13F091209 03:26:07 911 HANG UP 300 BERRY ST W
13F091210 03:28:09 800 DELAWARE AVE
13F091211 03:29:00 800 DELAWARE AVE
13F091212 03:31:29 40A AUDIBLE 6600 IDEAL AVE
13F091213 03:35:46 30 TRAFFIC STOP 1100 SPY RUN AVE & SUPERIOR ST E
13F091214 03:40:07 40A AUDIBLE 300 PASADENA DR
13F091215 03:45:01 101 OPEN DOOR 8300 MAPLE VALLEY DR
13F091216 03:45:41 15 ASSIST 4100 GOSHEN RD & WASHINGTON CENTER
13F091217 03:49:28 48,35 3700 TAYLOR ST & ARDMORE AVE
13F091218 03:50:48 65A SUICIDE ATT 3200 VICTOR LN
13F091219 04:00:35 4200 MERIDITH DR
13F091220 04:04:03 911 HANG UP 3400 DIPLOMAT DR
13F091221 04:08:18 5300 HEWITT LN
13F091222 04:12:42 4100 STANTON DR
13F091223 04:18:06 5200 HAMPSTEAD LN
13F091224 04:22:45 4000 HEDWIG DR
13F091225 04:26:48 911 HANG UP 5100 HOLTON AVE
13F091226 04:27:11 5300 LAWFORD LN
13F091227 04:30:41 46,96 5800 TURTLE CREEK DR
13F091228 04:33:20 3900 WALDEN RUN
13F091229 04:34:36 48,35 5400 BOWSER AVE
13F091230 04:36:30 3800 WALDEN RUN
13F091231 04:40:19 101 OPEN DOOR 300 NUSSBAUM AVE
13F091232 04:43:17 39 STOLEN VEHIC 1600 CLINTON ST S & MURRAY ST
13F091233 04:46:16 40A AUDIBLE 2100 FAIRFIELD AVE
13F091234 04:47:46 5900 GLENVIEW DR
13F091235 04:50:18 48,36 1900 COLISEUM BLVD W & HARRIS RD
13F091236 04:53:01 4100 GLENVIEW CT
13F091237 04:55:32 129 7400 ANTHONY BLVD S
13F091238 05:00:45 4000 WILLSHIRE CT
13F091239 05:02:28 46 DOMESTIC 3500 FERNDALE DR
13F091240 05:05:40 911 HANG UP 2100 HOAGLAND AVE
13F091241 05:06:23 66 MENTALLY ILL 5900 RICHLAND DR
13F091242 05:08:04 51,ATTEMPTED 200 DEWALD ST E
13F091243 05:09:19 3900 YARDLEY CT
13F091244 05:12:55 3800 YARDLEY CT
13F091245 05:24:24 40A AUDIBLE 600 GROWTH AVE
13F091246 05:25:44 40 ALARM 1800 CREIGHTON AVE E
13F091247 05:26:52 3500 IVY LEAGUE DR
13F091248 05:28:35 75 PURSUIT 300 PONTIAC ST E
13F091249 05:28:49 51 THEFT 1200 FAYETTE DR
13F091250 05:46:58 48,36 8300 LAKESIDE CT
13F091251 05:55:59 25HS HIT SKIP 2400 GARDEN PARK DR
13F091252 06:08:12 1 MEET 3700 WASHINGTON BLVD E
13F091253 06:11:11 41 MAN DOWN 300 JEFFERSON BLVD W
13F091254 06:14:10 37 PARKING VIOL 900 HAMILTON AVE
13F091255 06:14:35 39 STOLEN VEHIC 2800 PINEWOOD DR
13F091256 06:19:46 40A AUDIBLE 7600 PATRIOT XING
13F091257 06:20:17 50,ATTEMPTED 3500 STONE CREEK RUN
13F091258 06:32:02 51 THEFT 2800 CALHOUN ST S
13F091259 06:51:00 EMS 6500 BIRCHDALE DR
13F091260 07:26:05 40A AUDIBLE 2400 HOAGLAND AVE
13F091261 07:26:56 40A AUDIBLE 10200 COLDWATER RD
13F091262 07:56:34 51 THEFT 5300 GLENROSE DR
13F091263 08:00:41 101 OPEN DOOR 1300 PARK AVE
13F091264 08:04:39 40A AUDIBLE 400 FERNHILL AVE W
13F091265 08:08:06 30 TRAFFIC STOP 4900 BLUFFTON RD
13F091266 08:10:55 101 OPEN DOOR 6400 GEORGETOWN NORTH BLVD
13F091267 08:14:30 40A AUDIBLE 2900 STARDALE DR
13F091268 08:15:35 25 PD ACCIDENT 4800 BLUFFTON RD & WINCHESTER RD
13F091269 08:19:23 23 VANDALISM 1000 MADISON ST
13F091271 08:20:25 911 HANG UP 7900 COMMUNITY LN
13F091275 08:22:22 18 WORK TRAFFIC 4200 STRATHDON DR
13F091272 08:22:56 51 THEFT 8900 LIMA RD
13F091278 08:35:12 30 TRAFFIC STOP 300 BAKER ST W & EWING ST
13F091279 08:35:54 41 MAN DOWN 300 SUPERIOR ST W
13F091282 08:40:15 TOW 3500 TIMBERHILL DR
13F091284 08:41:20 EMS 3700 HARRISON ST S
13F091285 08:43:42 TOW 3500 TIMBERHILL DR
13F091286 08:46:19 TOW 3500 TIMBERHILL DR
13F091287 08:48:57 23 VANDALISM 5200 HEWITT LN
13F091288 08:54:38 48 SUSPICIOUS 2100 FAIRFIELD AVE & POPLAR ST
13F091289 08:55:24 48,36 1100 MEDICAL PARK DR
13F091290 08:56:13 1 MEET 2100 FAIRFIELD AVE & POPLAR ST
13F091292 08:58:33 911 HANG UP 2100 SPY RUN AVE
13F091293 09:01:31 16,97 7100 ELKHORN DR & BOHNKE DR
13F091294 09:06:35 38 LOST/STOLEN 3900 ARLINGTON AVE
13F091295 09:14:23 63 CONTACT 1100 LEWIS ST E
13F091296 09:19:14 70 FIRE 4200 STRATHDON DR
13F091297 09:23:21 911 HANG UP 4500 WINTER ST
13F091298 09:29:50 911 HANG UP 700 WAYNE ST E
13F091299 09:32:05 TOW 3500 TIMBERHILL DR
13F091300 09:36:41 TOW 200 BAKER ST W
13F091301 09:38:29 911 HANG UP 600 STURGIS ST
13F091302 09:42:56 30 TRAFFIC STOP 800 LAUREL HILL PL & MEDALLION RUN
13F091303 09:49:44 25 PD ACCIDENT 6000 ILLINOIS RD & GETZ RD
13F091304 09:55:56 51,ATTEMPTED 1500 APPLE GLEN BLVD
13F091305 09:58:07 911 HANG UP 3400 MEYER RD
13F091306 09:59:40 50 BURGLARY 2600 HOLTON AVE
13F091307 10:00:06 129 1700 MAIN ST W
13F091308 10:01:02 48,36 00 COUNTRY FOREST DR
13F091309 10:01:15 51,35 1600 COLISEUM BLVD N
13F091310 10:01:26 50,ATTEMPTED 900 OAKLAWN CT
13F091311 10:01:33 LP LOST PROPERT 100 WASHINGTON BLVD E
13F091312 10:10:06 1 MEET 900 STATE BLVD E
13F091314 10:13:25 39R STOLEN RECO 5400 MOELLER RD
13F091315 10:16:16 51 THEFT 700 NIGHTFALL RD
13F091316 10:22:49 43 DISTURBANCE 4400 PLAZA DR
13F091317 10:24:47 17 MOTOR CHECK 00 MAIN ST E
13F091318 10:26:09 51,35 1600 COLISEUM BLVD N
13F091319 10:29:08 22RN RUNAWAY 3200 DEBENEY DR
13F091320 10:29:45 96JO 2300 WEISSER PARK AVE
13F091321 10:33:34 30 TRAFFIC STOP 1200 BROADWAY & BRACKENRIDGE ST W
13F091322 10:35:23 43 DISTURBANCE 400 LASSELLE ST
13F091323 10:39:08 108 FOLLOWUP 4500 ANTHONY WAYNE DR SW
13F091324 10:47:12 911 HANG UP 800 COLISEUM BLVD N
13F091325 10:52:45 51 THEFT 4100 WINTERFIELD RUN
13F091326 10:56:15 63 CONTACT 7900 OKLAHOMA TRL
13F091327 10:57:43 1 MEET 3700 HANNA ST S
13F091328 11:02:22 22I JUV INVEST 6500 REED RD
13F091329 11:03:21 1 MEET 2900 BOARDWALK CIR
13F091330 11:06:56 108 FOLLOWUP 8500 SANDSTONE CT
13F091331 11:08:32 96JO 3400 OLIN AVE
13F091332 11:09:57 43,62 3400 OLIN AVE
13F091333 11:13:09 30 TRAFFIC STOP 10200 ILLINOIS RD
13F091334 11:18:18 911 HANG UP 400 MADISON ST
13F091335 11:22:29 63 CONTACT 2100 BROADWAY
13F091336 11:26:02 911 HANG UP 200 RUDISILL BLVD E
13F091339 11:37:32 22I JUV INVEST 00 MAIN ST E
13F091340 11:38:10 30 TRAFFIC STOP 400 COOK RD W & OPPORTUNITY DR
13F091342 11:40:39 23 VANDALISM 7300 INVERNESS LAKES DR
13F091343 11:41:07 50 BURGLARY 10500 PINE MILLS RD
13F091344 11:43:54 40A AUDIBLE 1100 GRANT AVE
13F091345 11:44:46 18 WORK TRAFFIC 2000 LAKE AVE & RANDALLIA DR
13F091347 11:46:15 129 9500 GREYHAWK DR
13F091348 11:47:20 129 5600 BROOKWOOD DR N
13F091349 11:47:37 129 5600 BROOKWOOD DR N
13F091350 11:47:40 911 HANG UP 10400 GREEN OAK BLVD
13F091351 11:49:00 48,36 300 WOODLAND AVE W
13F091352 11:49:32 129 9500 GREYHAWK DR
13F091353 11:50:28 22RN RUNAWAY 7900 DECATUR RD
13F091354 11:51:01 22RC RECOVERY 2000 TILLMAN RD E
13F091355 11:53:35 911 HANG UP 2800 DUPONT RD E
13F091356 11:54:32 37 PARKING VIOL 4500 WINDING WAY DR
13F091357 11:55:20 103 UNWANTED 7400 MILL RUN DR
13F091358 11:59:34 25 PD ACCIDENT 4900 CLINTON ST N & WAKEFIELD AVE
13F091360 12:12:49 51JO 800 COLISEUM BLVD E
13F091361 12:13:46 51 THEFT 1000 BAXTER ST
13F091362 12:14:09 50 BURGLARY 400 PONTIAC ST E
13F091363 12:14:09 46 DOMESTIC 800 WILT ST
13F091364 12:14:12 35 PARKED VEHIC 4400 ATWOOD DR
13F091365 12:15:22 25 PD ACCIDENT 13500 LIBERTY MILLS RD
13F091366 12:15:51 111D DOG 3900 RUDISILL BLVD E
13F091367 12:18:01 46 DOMESTIC 4800 HANNA ST S
13F091368 12:20:04 40A AUDIBLE 2700 MARCY LN
13F091369 12:21:22 51 THEFT 1900 FOX POINT TRL
13F091370 12:21:42 51JO 4200 COLDWATER RD
13F091371 12:22:42 1 MEET 3800 ICE WAY
13F091372 12:33:02 51 THEFT 8700 FORTUNA WAY
13F091373 12:34:26 23,35 VAND VEH 3400 ACADEMIC PL
13F091374 12:34:35 46,96 200 BUTLER ST W
13F091375 12:36:26 39 STOLEN VEHIC 2200 FAIRFIELD AVE
13F091376 12:37:28 46 DOMESTIC 800 WILT ST
13F091377 12:44:11 46 DOMESTIC 3700 SMITH ST
13F091378 12:46:05 46 DOMESTIC 1400 FRANKLIN AVE
13F091379 12:47:23 51,35 3000 SCHELE AVE
13F091381 12:53:05 30 TRAFFIC STOP 2100 PETTIT AVE E & STANDISH DR
13F091382 12:53:09 30 TRAFFIC STOP 100 COOK RD E & COLD SPRINGS BLVD
13F091383 12:53:44 108 FOLLOWUP 3300 EASTBROOK DR
13F091384 12:56:23 22I JUV INVEST 4800 TRACE DR
13F091385 12:58:50 33,34 1400 CLINTON ST N & FOURTH ST E
13F091386 13:01:48 129 6600 WINSTED CT
13F091387 13:02:06 129 3500 MONTANA DR
13F091388 13:05:08 25 PD ACCIDENT 3700 CRESCENT AVE & COLISEUM BLVD
13F091389 13:05:17 129 7600 DIANE DR
13F091390 13:11:49 1 MEET 6300 LANGLEY CT
13F091391 13:15:29 48 SUSPICIOUS 3500 WEISSER PARK AVE
13F091392 13:15:32 51 THEFT 700 THIRD ST
13F091393 13:20:59 43 DISTURBANCE 2900 ALEXANDER ST
13F091394 13:32:04 1 MEET 1500 FAYETTE DR
13F091395 13:32:11 46 DOMESTIC 3900 ENOLA CT
13F091396 13:33:59 51 THEFT 5900 ILLINOIS RD
13F091397 13:38:52 30 TRAFFIC STOP 5000 ROTHMAN RD & BROOK DR
13F091398 13:39:59 53 ARMED ROB 2500 BARR ST S & SUTTENFIELD AVE E
13F091399 13:40:41 101 OPEN DOOR 2800 MONROE ST S
13F091400 13:51:21 38 LOST/STOLEN 1900 BLUFFTON RD
13F091401 13:51:40 17 MOTOR CHECK 2200 EBY AVE
13F091402 13:54:00 33,34 2300 COLISEUM BLVD E & CRESCENT AV
13F091403 13:54:39 103 UNWANTED 3500 HARRIS RD
13F091404 13:58:38 129 8600 OAKCLIFF CT
13F091405 13:59:43 16V PICKUP VID 00 MAIN ST E
13F091406 14:00:26 51 THEFT 1400 MCCULLOCH ST
13F091407 14:03:11 911 HANG UP 3200 DINNEN AVE
13F091408 14:03:20 25 PD ACCIDENT 1300 ILLINOIS RD S
13F091410 14:05:23 47 REMOVE ITEMS 2100 BAY SIDE CT
13F091411 14:05:32 1 MEET 00 MAIN ST E
13F091409 14:05:37 22I JUV INVEST 4000 SOUTHWAYNE AVE
13F091412 14:06:08 30 TRAFFIC STOP 8200 FAWNCREST PL & ARLINGTON PKWY
13F091413 14:11:58 17 MOTOR CHECK 5300 GOSHEN RD
13F091414 14:12:51 30 TRAFFIC STOP 9900 AUBURN RD & KELLEYS LANDING
13F091415 14:13:18 129 1100 SEDDLEMEYER AVE
13F091416 14:17:51 22I JUV INVEST 1300 CLINTON ST S
13F091417 14:19:00 96 BATTERY 800 HAMILTON AVE
13F091418 14:20:14 17 MOTOR CHECK 5300 LAKE AVE
13F091419 14:20:36 34 TRAFF HAZARD 400 RUDISILL BLVD W & FAIRFIELD AV
13F091420 14:20:44 102 THREATS 500 MEYER AVE
13F091421 14:21:07 30 TRAFFIC STOP 1100 MCCULLOCH ST & LEWIS ST E
13F091422 14:21:51 16V PICKUP VID 00 MAIN ST E
13F091423 14:22:51 33J LOCKED OUT 1600 OLLADALE DR
13F091424 14:23:27 30 TRAFFIC STOP 1900 WASHINGTON BLVD E & GRANT AVE
13F091425 14:26:03 50,ATTEMPTED 3300 HARRISON ST S
13F091426 14:26:18 22N CHILD NEGLE 5000 CLINTON ST N
13F091427 14:27:47 25 PD ACCIDENT 700 TILL RD E & COLDWATER RD
13F091428 14:31:04 51 THEFT 1600 NEUHAUS DR
13F091429 14:33:10 30 TRAFFIC STOP 1300 LEWIS ST E
13F091430 14:35:29 30 TRAFFIC STOP 400 KINNAIRD AVE & FAIRFIELD AVE
13F091431 14:36:55 911 HANG UP 2500 NORTHWAY DR
13F091433 14:37:50 30 TRAFFIC STOP 7400 WHEELOCK RD & ROTHMAN LN
13F091432 14:37:52 20 PROBLEM UNK 3200 HERITAGE DR
13F091434 14:41:10 51,35 300 MAIN ST E
13F091435 14:42:53 48 SUSPICIOUS 1600 FAIRFIELD AVE
13F091436 14:44:59 17 MOTOR CHECK 1100 FRANKLIN AVE
13F091437 14:47:01 30 TRAFFIC STOP 4700 STELLHORN RD & REED RD
13F091438 14:52:34 40A AUDIBLE 1000 CROWDER CT
13F091439 14:53:42 25 PD ACCIDENT 300 WASHINGTON CENTER RD E & COLDW
13F091440 14:53:52 30 TRAFFIC STOP 1900 WASHINGTON BLVD E & GRANT AVE
13F091442 14:54:54 48 SUSPICIOUS 1400 ST JOSEPH BLVD
13F091443 14:55:31 911 HANG UP 2300 MARCY LN
13F091444 14:56:38 25HS HIT SKIP 6100 STELLHORN RD
13F091445 14:58:30 HARASSMENT 6600 ANGELLO CT
13F091446 14:59:12 63 CONTACT 2500 MINER ST
13F091447 15:00:17 911 HANG UP 1400 LILLIE ST
13F091448 15:00:55 25HS HIT SKIP 3600 LAKE AVE
13F091449 15:01:01 50 BURGLARY 2500 MINER ST
13F091450 15:03:19 33J LOCKED OUT 3500 HESSEN CASSEL RD & WAYNE TRAC
13F091451 15:08:45 30 TRAFFIC STOP 100 PONTIAC ST E & CLINTON ST S
13F091452 15:11:50 911 HANG UP 6500 CONSTITUTION DR
13F091453 15:13:57 24 MISSING PERS 00 MAIN ST E
13F091454 15:14:07 25 PD ACCIDENT 100 CREIGHTON AVE E & CLINTON ST S
13F091455 15:15:50 48 SUSPICIOUS 800 STATE BLVD W & SHERMAN BLVD
13F091456 15:16:30 EMS 5100 BROADMORE CT
13F091457 15:16:36 30 TRAFFIC STOP 4900 ST JOE RD & BROYLES BLVD N
13F091458 15:16:51 51 THEFT 2000 CALHOUN ST S
13F091459 15:17:12 EMS 5000 SOUTHWOOD AVE
13F091460 15:17:12 30 TRAFFIC STOP 600 STATE BLVD E & PARNELL AVE
13F091461 15:19:39 129 2900 BOSWORTH DR
13F091462 15:20:00 22RC RECOVERY 2000 TILLMAN RD E
13F091463 15:20:11 43 DISTURBANCE 1300 OAKLAND ST
13F091464 15:22:52 22I JUV INVEST 1300 CLINTON ST S
13F091465 15:23:07 17 MOTOR CHECK 400 COLISEUM BLVD W
13F091466 15:23:56 911 HANG UP 2900 LAKE AVE
13F091467 15:25:50 48 SUSPICIOUS 900 GRACE AVE
13F091468 15:26:56 11C CAGE CAR 500 KINSMOOR AVE
13F091469 15:30:57 911 HANG UP 7400 COLD SPRINGS BLVD
13F091470 15:33:21 48 SUSPICIOUS 10300 COPPER TREE PL
13F091471 15:34:28 102 THREATS 6800 FORESTWOOD DR
13F091472 15:37:38 40A AUDIBLE 1800 ST LOUIS AVE
13F091473 15:39:08 30 TRAFFIC STOP 1700 PETTIT AVE E & ANTHONY BLVD S
13F091474 15:39:29 30 TRAFFIC STOP 1400 CLINTON ST N & FOURTH ST E
13F091475 15:40:09 129 4100 JEFFERSON BLVD W
13F091476 15:40:30 43 DISTURBANCE 3500 WAYNE TRACE
13F091477 15:41:08 30 TRAFFIC STOP 2300 OXFORD ST & AUTUMN LN
13F091478 15:43:41 37 PARKING VIOL 1500 OAKLAND ST
13F091479 15:46:43 30 TRAFFIC STOP 5000 ST JOE RD & CANTERBURY BLVD
13F091480 15:46:48 43 DISTURBANCE 2300 SMITH ST
13F091481 15:46:51 911 HANG UP 2300 SMITH ST
13F091482 15:51:37 33,34 100 FERNHILL AVE W & LIMA RD
13F091483 15:55:04 22RC RECOVERY 3700 WAYNE TRACE
13F091484 15:55:42 51 THEFT 1800 LAVERNE AVE
13F091485 15:56:06 46 DOMESTIC 00 MAIN ST E
13F091486 15:59:57 15 ASSIST 600 HARRISON ST S
13F091487 16:00:01 80 CIVIL INVEST 5000 TWILIGHT LN
13F091488 16:00:54 25 PD ACCIDENT 3100 MAPLE GROVE AVE E & HESSEN CA
13F091489 16:06:28 30 TRAFFIC STOP 1800 ST LOUIS AVE
13F091490 16:09:18 43 DISTURBANCE 600 FIFTH ST
13F091491 16:11:08 HARASSMENT 3200 VICTOR LN
13F091492 16:15:10 30 TRAFFIC STOP 8200 JEFFERSON BLVD W & I 69 NB
13F091494 16:15:45 911 HANG UP 4900 MAMIE DR
13F091493 16:15:48 25HS HIT SKIP 500 FOURTH ST W
13F091495 16:16:36 17 MOTOR CHECK 7700 BLUFFTON RD
13F091496 16:17:44 14 WARRANT 4600 PLAZA DR
13F091497 16:18:28 34 TRAFF HAZARD 1600 CALHOUN ST S & MURRAY ST
13F091499 16:20:54 63Z ZACH CHECK 5000 PINEBROOK DR
13F091500 16:22:07 43,62 4800 SPEEDWAY DR & COLLINS RD W
13F091501 16:23:19 30 TRAFFIC STOP 1900 ST LOUIS AVE
13F091502 16:24:50 43 DISTURBANCE 2300 MARCY LN
13F091503 16:26:06 911 HANG UP 800 BERRY ST E
13F091504 16:27:36 26 PI ACCIDENT 8200 JEFFERSON BLVD W & I 69 NB
13F091505 16:28:29 25HS HIT SKIP 700 COLISEUM BLVD E
13F091506 16:29:10 43 DISTURBANCE 900 WASHINGTON BLVD E
13F091507 16:30:08 11C CAGE CAR 7500 SOUTHTOWN XING
13F091508 16:30:18 26 PI ACCIDENT 8200 JEFFERSON BLVD W & I 69 NB
13F091509 16:30:25 17 MOTOR CHECK 9500 LIMA RD
13F091510 16:32:49 911 HANG UP 1400 TAMERA GARDEN AVE
13F091511 16:37:22 30 TRAFFIC STOP 1400 ROSEMONT DR & POINSETTE DR
13F091512 16:39:09 16V PICKUP VID 00 MAIN ST E
13F091513 16:50:27 25HS HIT SKIP 2600 WEISSER PARK AVE
13F091514 16:51:09 1 MEET 2700 STERLING ST
13F091515 16:51:13 30 TRAFFIC STOP 7700 KNIGHTSWOOD DR & BRECKENWOOD
13F091516 16:52:41 51 THEFT 2400 OLIVER ST
13F091517 16:55:24 1 MEET 1900 HARRISON ST S
13F091518 16:56:42 48 SUSPICIOUS 4100 CLINTON ST N
13F091519 17:04:50 51,35 400 PENN AVE
13F091520 17:09:31 25 PD ACCIDENT 300 COLISEUM BLVD E
13F091521 17:10:10 62 PARTY ARMED 500 JEFFERSON BLVD W
13F091522 17:11:26 51IP 1500 GOSHEN AVE
13F091523 17:17:39 46 DOMESTIC 4100 SANDHURST DR
13F091524 17:17:57 11C CAGE CAR 900 THOMAS RD S
13F091525 17:18:31 25 PD ACCIDENT 3000 COLISEUM BLVD W
13F091526 17:18:57 22N CHILD NEGLE 3500 COLISEUM BLVD W
13F091527 17:20:16 EMS 2600 STATE BLVD W
13F091528 17:20:31 25 PD ACCIDENT 500 STATE BLVD E & PLEASANT AVE
13F091529 17:21:24 25HS HIT SKIP 2600 CARVER CT
13F091530 17:22:25 25 PD ACCIDENT 100 STATE BLVD E & CLINTON ST N
13F091531 17:22:48 25 PD ACCIDENT 100 STATE BLVD E & CLINTON ST N
13F091533 17:23:38 62 PARTY ARMED 10100 LIMA RD
13F091534 17:23:44 40 ALARM 1200 KENWOOD AVE
13F091532 17:23:59 25 PD ACCIDENT 2200 CLINTON ST N & STATE BLVD E
13F091535 17:24:03 20 PROBLEM UNK 5200 RIVIERA DR
13F091536 17:25:19 30 TRAFFIC STOP 1800 ST LOUIS AVE
13F091537 17:25:44 911 HANG UP 400 TREELINE CV
13F091538 17:26:24 15 ASSIST 3400 RAYMOND AVE
13F091539 17:26:59 33,34 3200 STELLHORN RD & ST JOE RD
13F091540 17:31:09 17 MOTOR CHECK 5700 RIVIERA DR
13F091541 17:31:46 43 DISTURBANCE 00 COUNTRY FOREST DR
13F091542 17:31:56 1 MEET 1300 BROADWAY
13F091543 17:33:55 40A AUDIBLE 500 WAYNE ST E
13F091544 17:37:01 46 DOMESTIC 3200 PLAZA DR
13F091545 17:40:15 911 HANG UP 1400 COLISEUM BLVD N
13F091546 17:40:43 40 ALARM 1200 KENWOOD AVE
13F091547 17:43:37 51 THEFT 500 JEFFERSON BLVD W
13F091548 17:46:12 99 NARCOTICS 00 MAIN ST E
13F091549 17:49:45 66 MENTALLY ILL 2600 FOX AVE
13F091551 17:50:45 46 DOMESTIC 3100 WELLS ST
13F091552 17:50:54 911 HANG UP 200 RUDISILL BLVD E
13F091553 17:50:59 40H HOLDUP ALRM 1600 WASHINGTON BLVD E
13F091550 17:51:21 46,96 1200 BARTHOLD ST
13F091554 17:51:34 16V PICKUP VID 00 MAIN ST E
13F091555 17:53:38 1 MEET 1800 SHORT ST & ARCHER AVE
13F091556 17:55:15 16V PICKUP VID 00 MAIN ST E
13F091557 17:56:24 43 DISTURBANCE 5300 COLDWATER RD
13F091558 17:56:46 108 FOLLOWUP 1500 ROOSEVELT DR
13F091559 17:59:17 43 DISTURBANCE 6200 ST JOE CENTER RD
13F091560 18:00:01 43 DISTURBANCE 2800 BOSWORTH DR
13F091561 18:02:35 34 TRAFF HAZARD 31200 I 69 NB & COLDWATER RD
13F091562 18:04:43 15 ASSIST 1900 EMBASSY DR
13F091563 18:06:35 911 HANG UP 7600 SEA ISLE PL
13F091564 18:08:31 46,96 4300 MAPLECREST RD & STELLHORN RD
13F091565 18:08:46 30 TRAFFIC STOP 1300 PARK AVE & THOMPSON AVE
13F091566 18:12:00 44LM 3000 CANTERBURY BLVD
13F091567 18:15:06 41 MAN DOWN 600 LEWIS ST E & HANNA ST S
13F091568 18:17:44 34 TRAFF HAZARD 600 LEWIS ST E & HANNA ST S
13F091569 18:21:13 63 CONTACT 5600 KELSO LN
13F091570 18:21:20 43 DISTURBANCE 700 BROADWAY
13F091571 18:21:44 34 TRAFF HAZARD 31300 I 69 NB
13F091572 18:21:49 911 HANG UP 7500 IDEAL AVE
13F091573 18:25:29 48 SUSPICIOUS 600 WALNUT ST
13F091574 18:27:55 50 BURGLARY 1800 SPRING ST
13F091575 18:30:42 23 VANDALISM 2400 MCKEE ST
13F091576 18:33:02 66 MENTALLY ILL 1500 THIRD ST
13F091577 18:35:57 911 HANG UP 1100 THOMAS RD S
13F091578 18:36:37 65A SUICIDE ATT 1400 FARWOOD AVE
13F091580 18:37:05 911 HANG UP 8300 BRIDGEWAY LN
13F091579 18:37:57 911 HANG UP 2900 WAYNEWOOD DR
13F091581 18:39:11 34 TRAFF HAZARD 1000 BROADWAY & JEFFERSON BLVD W
13F091582 18:40:06 50 BURGLARY 1600 KELLY DR
13F091583 18:56:35 46 DOMESTIC 900 KINSMOOR AVE
13F091584 18:57:02 23JO 1900 HILLSIDE AVE
13F091585 18:58:13 51 THEFT 6100 STELLHORN RD
13F091586 19:00:04 25HS HIT SKIP 200 SHERWOOD TERR W
13F091587 19:03:28 30 TRAFFIC STOP 1100 JEFFERSON BLVD W & COLLEGE ST
13F091588 19:03:52 43 DISTURBANCE 2200 FAIRFIELD AVE
13F091589 19:05:38 46 DOMESTIC 1900 WALLEN RD W
13F091590 19:06:27 51JO 200 PETTIT AVE E
13F091591 19:06:40 48 SUSPICIOUS 1400 WASHINGTON CENTER RD W
13F091592 19:09:37 101 OPEN DOOR 3400 MCCORMICK AVE
13F091593 19:11:54 911 HANG UP 5700 CHALLENGER PKWY
13F091594 19:12:40 40A AUDIBLE 6300 MIDFIELD DR
13F091595 19:15:37 66 MENTALLY ILL 5200 WILLOWWOOD CT
13F091596 19:21:15 51 THEFT 3200 INDIANA AVE
13F091597 19:22:08 17 MOTOR CHECK 5800 RIVIERA DR
13F091598 19:25:31 911 HANG UP 500 MCKINNIE AVE
13F091599 19:27:00 46 DOMESTIC 6200 KENT RD
13F091600 19:38:54 40A AUDIBLE 4400 EXECUTIVE BLVD
13F091601 19:41:33 44FW 1100 PARK AVE
13F091602 19:41:59 44 NUISANCE 7400 WOODBINE AVE
13F091603 19:42:11 62 PARTY ARMED 2400 WELLS ST
13F091604 19:42:36 46 DOMESTIC 3700 SMITH ST
13F091605 19:48:17 22RN RUNAWAY 4900 DEVONSHIRE DR
13F091606 19:49:01 40A AUDIBLE 5500 DECATUR RD
13F091607 19:50:21 911 HANG UP 4100 SOUTHWAYNE AVE
13F091608 19:52:11 22I JUV INVEST 200 PETTIT AVE E
13F091609 19:54:39 40I INTRUSION 7600 COVINGTON HOLLOW LN
13F091610 19:59:36 40 ALARM 3500 CLINTON ST N
13F091611 20:04:18 102 THREATS 600 OXFORD ST
13F091612 20:09:37 33,34 1800 FAIRFIELD AVE
13F091613 20:13:24 50 BURGLARY 3700 BLYTHEWOOD PL
13F091614 20:16:41 43 DISTURBANCE 4500 COLONIAL AVE S
13F091615 20:18:30 102 THREATS 1500 WALDRON CIR
13F091616 20:19:38 111D DOG 7100 ILLINOIS RD & HADLEY RD S
13F091617 20:20:17 33,34 3700 WASHINGTON CENTER RD W & HUGU
13F091618 20:22:17 48 SUSPICIOUS 1600 CIRCLE DR
13F091619 20:23:28 37 PARKING VIOL 1200 BOONE ST
13F091620 20:27:37 37 PARKING VIOL 800 DREXEL AVE
13F091621 20:28:31 46 DOMESTIC 1000 SAVILLA AVE
13F091622 20:28:35 911 HANG UP 1300 FRANCIS ST
13F091623 20:35:58 99 NARCOTICS 2100 FOX AVE & POPLAR ST
13F091624 20:36:58 50,ATTEMPTED 3700 BLYTHEWOOD PL
13F091625 20:37:03 43 DISTURBANCE 200 PETTIT AVE E
13F091626 20:44:41 22I JUV INVEST 5900 DARTMOUTH DR & BUCKINGHAM DR
13F091627 20:45:25 48 SUSPICIOUS 1000 BROADWAY
13F091628 20:45:56 11C CAGE CAR 1700 APPLE GLEN BLVD
13F091629 20:46:09 15 ASSIST 2300 CLINTON ST S
13F091630 20:46:17 46 DOMESTIC 100 COUNTRY FOREST DR
13F091631 20:52:01 911 HANG UP 1500 WALDRON CIR
13F091632 20:52:36 51 THEFT 1000 BARR ST S
13F091633 20:52:50 40A AUDIBLE 3900 KRAFT PKWY
13F091634 20:54:01 102 THREATS 2200 MERIDIAN ST
13F091635 21:01:38 911 HANG UP 3700 CENTRAL DR
13F091636 21:03:58 101 OPEN DOOR 100 THREE RIVERS E
13F091637 21:06:34 65T SUICIDE THR 00 MAIN ST E
13F091638 21:12:52 22RN RUNAWAY 4900 DEVONSHIRE DR
13F091639 21:17:02 129 3000 SCHELE AVE
13F091665 21:18:51 28 DUI 8900 AUBURN RD
13F091640 21:19:23 11C CAGE CAR 1700 APPLE GLEN BLVD
13F091641 21:21:07 43 DISTURBANCE 1300 FAY DR & THOMPSON AVE
13F091642 21:28:02 30 TRAFFIC STOP 700 COLISEUM BLVD E
13F091643 21:28:20 22I JUV INVEST 200 GLENCOE AVE
13F091644 21:28:53 41 MAN DOWN 1000 LAFAYETTE ST S & JEFFERSON BL
13F091645 21:31:28 30 TRAFFIC STOP 400 JEFFERSON BLVD E & CLAY ST
13F091646 21:34:23 43 DISTURBANCE 2500 EMERSON AVE
13F091647 21:34:42 911 HANG UP 3200 DIPLOMAT DR
13F091648 21:34:52 67 INDECENT 3900 NEWPORT AVE
13F091649 21:35:15 34 TRAFF HAZARD 700 UNION ST & BERRY ST W
13F091650 21:35:20 40A AUDIBLE 5400 KEYSTONE DR
13F091651 21:36:18 14S SERVING WAR 200 MAIN ST E
13F091652 21:36:44 40A AUDIBLE 2800 LOFTY DR
13F091653 21:38:18 48 SUSPICIOUS 3600 THREE OAKS DR
13F091654 21:39:06 50IP BURG I/P 7700 KINGSWAY DR
13F091655 21:39:32 46,96 1400 WALL ST
13F091656 21:40:53 34 TRAFF HAZARD 900 COLISEUM BLVD E
13F091657 21:41:16 34 TRAFF HAZARD 1100 WAYNE ST W & COLLEGE ST
13F091658 21:41:45 911 HANG UP 8200 ROCKBROOK CT
13F091659 21:41:51 63 CONTACT 5200 STANDISH DR
13F091660 21:42:02 34 TRAFF HAZARD 500 GREENWOOD AVE & ILLINOIS ST
13F091661 21:42:12 113 SHOTS FIRED 4300 BOWSER AVE
13F091662 21:42:17 40A AUDIBLE 7600 BLUFFTON RD
13F091663 21:43:27 34 TRAFF HAZARD 400 MAIN ST W & FAIRFIELD AVE
13F091664 21:44:16 911 HANG UP 2900 FRUEHAUF DR
13F091666 21:46:01 40A AUDIBLE 800 COLISEUM BLVD N
13F091667 21:46:55 40A AUDIBLE 1200 ST JOE RIVER DR
13F091668 21:47:04 40 ALARM 10400 MAYSVILLE RD
13F091669 21:49:35 101 OPEN DOOR 3900 NEWPORT AVE
13F091670 21:50:42 40A AUDIBLE 6400 WINCHESTER RD
13F091671 21:52:16 40A AUDIBLE 2800 STATE BLVD W
13F091672 21:53:35 48,35 4700 ARLINGTON AVE
13F091673 21:54:03 34 TRAFF HAZARD 1600 JEFFERSON BLVD W
13F091674 21:55:18 48 SUSPICIOUS 1900 ANTOINETTE ST
13F091676 21:55:45 34 TRAFF HAZARD 7800 NORTHRIVER RD
13F091677 21:56:01 40A AUDIBLE 2600 LAKE AVE
13F091678 21:58:31 18 WORK TRAFFIC 3100 LAKE AVE & HOBSON RD
13F091679 21:59:27 113 SHOTS FIRED 2700 MILLBROOK DR
13F091680 21:59:28 23 VANDALISM 4600 ARLINGTON AVE
13F091681 21:59:42 30 TRAFFIC STOP 4700 ANTHONY BLVD S & CAPITOL AVE
13F091682 22:03:06 23 VANDALISM 2400 EVANS ST
13F091683 22:04:24 33,34 31200 I 69 NB
13F091684 22:05:13 15 ASSIST 500 DOUGLAS AVE E & MONROE ST S
13F091685 22:05:59 34 TRAFF HAZARD 9700 ABOITE RD
13F091686 22:06:17 34 TRAFF HAZARD 11400 JEFFERSON BLVD W & REDDING D
13F091687 22:06:44 30 TRAFFIC STOP 5000 BLUFFTON RD
13F091688 22:13:03 25HS HIT SKIP 4700 ARLINGTON AVE
13F091689 22:14:18 111 ANIMAL INVE 200 WILDWOOD AVE E
13F091690 22:15:14 48 SUSPICIOUS 6700 BLUFFTON RD
13F091691 22:17:45 34 TRAFF HAZARD 31600 I 69 NB
13F091692 22:19:32 46 DOMESTIC 4700 JASON DR
13F091693 22:23:25 24 MISSING PERS 4900 HOAGLAND AVE
13F091694 22:23:39 43 DISTURBANCE 300 SUPERIOR ST W
13F091695 22:25:38 18 WORK TRAFFIC 1400 COLISEUM BLVD N & LAKE AVE
13F091696 22:26:42 18 WORK TRAFFIC 500 MAPLECREST RD & LAKE AVE
13F091697 22:28:13 30 TRAFFIC STOP 10300 ABOITE CENTER RD & WESTLAKES
13F091698 22:29:09 46 DOMESTIC 1300 GREENE ST
13F091699 22:34:08 101 OPEN DOOR 200 STORMY RIDGE PL
13F091700 22:37:31 30 TRAFFIC STOP 3800 SMITH ST & RUDISILL BLVD E
13F091701 22:39:34 EMS 2000 OAKLAND ST
13F091702 22:49:43 30 TRAFFIC STOP 4200 PLAZA DR & MCKINNIE AVE
13F091703 22:52:02 34 TRAFF HAZARD 800 JACKSON ST & WAYNE ST W
13F091704 22:52:51 46,96 4300 MIRADA DR
13F091705 22:57:07 34 TRAFF HAZARD 4600 HATFIELD RD & PLEASANT VILLAG
13F091706 22:57:12 48 SUSPICIOUS 4300 KEKIONGA DR
13F091707 23:00:14 40 ALARM 1300 COLISEUM BLVD N
13F091708 23:03:09 911 HANG UP 2100 WELLS ST
13F091709 23:03:31 51 THEFT 400 CREIGHTON AVE E
13F091710 23:04:07 22RC RECOVERY 2000 TILLMAN RD E
13F091711 23:09:12 43 DISTURBANCE 1400 FOURTH ST W
13F091712 23:21:45 44 NUISANCE 400 WILLIAMS ST W
13F091713 23:22:47 113 SHOTS FIRED 4100 WINTER ST
13F091714 23:23:28 911 HANG UP 6000 BUNT DR
13F091715 23:26:59 24 MISSING PERS 4700 BOWSER AVE
13F091716 23:27:44 37 PARKING VIOL 1100 WAYNE ST W
13F091717 23:29:10 43 DISTURBANCE 1400 FOURTH ST W
13F091718 23:42:04 46,96 8300 BRIDGEWAY DR
13F091719 23:42:20 99 NARCOTICS 2300 CALIFORNIA AVE
13F091720 23:44:50 41 MAN DOWN 1600 HIGH ST
13F091721 23:51:18 44LM 900 WASHINGTON BLVD E
13F091722 23:52:15 46,96 700 STATE BLVD W
13F091723 23:52:35 34 TRAFF HAZARD 1200 CLAY ST & DOUGLAS AVE E
13F091724 23:53:29 46 DOMESTIC 6900 FOREST GLEN CT
13F091725 23:54:52 48 SUSPICIOUS 7000 RED HAW DR
13F091726 23:56:46 44LP 900 WASHINGTON BLVD E
13F091727 23:57:03 34 TRAFF HAZARD 1200 CLAY ST & DOUGLAS AVE E
13F091728 23:58:39 46 DOMESTIC 900 FULTON ST
Amber Alert

All-America City